Location: *
(41.6667°N, 14.2500°E)
Time: 01:07:40
(UTC+00:00)

Daily predictions for brighter satellites

Satellite Brightness Start Highest point End
(mag) Time Altitude Azimuth Time Altitude Azimuth Time Altitude Azimuth
CENTAUR R/B 4.1 01:23:56 40° NE 01:24:10 40° NE 01:32:09 10° ESE
ATLAS 2AS CENTAUR R/B 3.5 01:50:45 55° NE 01:50:45 55° NE 01:56:49 10° NE
Cosmos 2333 Rocket 4.4 01:57:56 18° NNE 01:57:56 18° NNE 01:59:19 10° NNE
Cosmos 2219 Rocket 4.4 02:06:06 18° NNE 02:06:06 18° NNE 02:07:25 10° NNE
Cosmos 2237 Rocket 3.4 02:20:04 39° NE 02:20:04 39° NE 02:23:36 10° NNE
USA 267 3.4 02:16:34 10° NE 02:22:21 71° ENE 02:22:21 71° ENE
IDEFIX/ARIANE 42P 3.0 02:39:06 10° NNE 02:43:36 60° NE 02:43:36 60° NE
NOSS 3-2 (C) 3.9 02:44:13 70° WSW 02:44:21 70° WSW 02:52:47 10° SSE
Cosmos 2184 Rocket 4.0 02:48:01 51° S 02:49:43 80° E 02:56:02 10° N
USA 234 3.8 02:49:40 10° ESE 02:55:58 53° NNE 02:59:21 28° NNW
NOSS 3-4 (A) 3.6 02:59:59 53° NNW 02:59:59 53° NNW 03:05:46 10° NNE
NOSS 3-4 (C) 3.6 03:00:03 54° NNW 03:00:03 54° NNW 03:05:53 10° NNE
Cosmos 44 Rocket 4.2 03:03:22 30° N 03:05:08 43° NE 03:09:35 10° ESE
BREEZE-M DEB (TANK) 4.1 03:06:11 41° SSW 03:07:47 53° SSE 03:11:13 10° ENE
ATLAS 3B R/B 2.5 03:06:14 51° NW 03:08:00 73° WSW 03:14:52 10° SSE
SL-16 R/B 2.3 03:11:16 30° S 03:14:07 74° ESE 03:19:48 10° NNE
CENTAUR R/B 3.1 03:11:14 32° NW 03:15:25 63° WSW 03:23:58 10° SSE
Cosmos 1140 Rocket 3.5 03:17:25 59° NW 03:17:25 59° NW 03:22:11 10° NNE
Cosmos 2074 Rocket 3.9 03:15:53 49° SW 03:17:16 61° W 03:23:26 10° N
H-2A R/B 2.4 03:14:32 10° NNE 03:18:49 87° ESE 03:19:16 71° S
Meteor 1-16 Rocket 4.3 03:18:02 10° N 03:23:22 69° E 03:28:46 10° SSE
Cosmos 1954 Rocket 3.8 03:22:39 53° SW 03:23:50 73° WNW 03:29:03 10° NNE
CZ-4B R/B 3.9 03:20:22 10° NNE 03:24:06 43° E 03:27:39 10° S
Cosmos 2278 Rocket 4.0 03:28:08 16° SSW 03:28:08 16° SSW 03:29:17 10° SSW
Cosmos 1892 Rocket 3.8 03:21:35 10° S 03:25:58 70° E 03:30:21 10° NNE
Cosmos 2297 3.7 03:24:14 10° NNW 03:30:01 83° ENE 03:35:45 10° SSE
PAYLOAD A 3.8 03:27:03 10° NNE 03:31:59 85° WNW 03:37:06 10° SSW
ADEOS 3.9 03:31:40 10° N 03:36:34 42° WNW 03:36:55 42° W
CZ-2C R/B 2.5 03:31:41 10° NNE 03:36:54 87° ESE 03:41:59 10° SSW
Cosmos 1606 Rocket 3.4 03:33:17 10° NNW 03:37:34 63° W 03:41:50 10° S
MSX 3.8 03:33:08 10° N 03:38:46 62° WNW 03:44:24 10° SSW
BREEZE-M DEB (TANK) 3.6 03:38:42 27° NNW 03:38:51 27° NNW 03:41:15 10° NE
Cosmos 2333 Rocket 4.2 03:39:58 13° NNW 03:39:58 13° NNW 03:41:37 10° NNW
ATLAS 2AS CENTAUR R/B 3.9 03:38:13 27° WNW 03:40:36 32° NW 03:47:36 10° NNE
RESURS DK-1 2.8 03:43:35 40° NW 03:43:35 40° NW 03:47:14 10° NNE
Milstar 3 Cent rocket 4.0 03:40:21 14° SSW 03:43:23 19° S 03:46:52 10° SE
BREEZE-M DEB (TANK) 4.0 03:35:27 10° SW 03:45:06 43° SSE 03:48:09 10° ENE
Cosmos 2219 Rocket 4.2 03:47:50 11° NNW 03:47:50 11° NNW 03:48:43 10° NNW
GP-B 3.1 03:47:21 10° S 03:51:47 84° E 03:56:14 10° N
Cosmos 1356 3.4 03:52:08 50° WNW 03:52:24 52° W 03:55:46 10° S
In-Cosmos 22 4.0 03:48:34 10° SSW 03:53:53 66° WNW 03:59:22 10° N
KORONAS-FOTON 4.1 03:51:24 10° S 03:55:08 68° E 03:58:55 10° NNE
Cosmos 1626 Rocket 4.4 03:55:05 10° S 03:59:16 52° E 04:03:29 10° NNE
Meteor 2-17 Rocket 4.4 03:53:31 10° S 03:59:35 88° E 04:05:40 10° N
Cosmos 2228 3.4 03:57:30 10° NNW 04:01:27 38° W 04:05:22 10° SSW
Cosmos 2237 Rocket 3.5 04:01:56 20° WNW 04:02:32 20° NW 04:06:41 10° N
ISS -0.4 04:02:49 10° SE 04:03:27 10° SE 04:04:04 10° ESE
Cosmos 1726 2.0 04:00:38 10° NNW 04:04:15 57° W 04:07:51 10° S
USA 267 4.0 03:59:52 10° NE 04:05:45 37° NNW 04:09:42 19° WNW
Cosmos 1437 Rocket 2.9 04:04:49 10° SSW 04:08:27 45° WNW 04:12:07 10° N
Cosmos 1741 Rocket 4.0 04:03:34 10° SSW 04:08:53 75° WNW 04:14:14 10° NNE
Cosmos 1763 Rocket 3.8 04:04:18 10° NNW 04:09:27 66° ENE 04:14:29 10° SSE
COSMO-SKYMED 1 2.9 04:05:45 10° SSE 04:10:03 69° ENE 04:14:23 10° N
ALOS 3.5 04:07:30 10° NNE 04:11:59 45° E 04:16:26 10° S
Okean 1-7 Rocket 4.2 04:09:41 10° SW 04:13:46 35° WNW 04:17:55 10° N
CZ-4B R/B 4.3 04:10:20 10° N 04:14:12 43° WNW 04:18:14 10° SW
Cosmos 1726 Rocket 4.3 04:12:58 10° NNW 04:16:40 28° W 04:20:22 10° SSW
Cosmos 2369 Rocket 2.8 04:11:36 10° NNW 04:17:08 57° ENE 04:22:37 10° SE
Cosmos 1908 3.1 04:14:53 10° NNW 04:18:39 62° W 04:22:25 10° S
CZ-4B DEB 4.4 04:14:06 10° NNE 04:19:35 77° ESE 04:25:02 10° S
Meteor 2-5 Rocket 3.8 04:14:47 10° SSW 04:20:33 65° WNW 04:26:27 10° N
SJ-12 4.1 04:17:08 10° NNE 04:21:16 77° ESE 04:25:22 10° S
Cosmos 2218 Rocket 4.1 04:16:32 10° S 04:22:55 90° W 04:29:16 10° N
IDEFIX/ARIANE 42P 4.0 04:20:10 10° NNW 04:23:20 16° WNW 04:24:24 15° WNW
PSLV R/B 3.7 04:21:35 10° N 04:25:13 54° WNW 04:28:49 10° SSW
PSLV R/B 2.5 04:24:33 23° W 04:25:59 79° S 04:28:37 10° E
CZ-4B R/B 3.7 04:26:09 10° NNE 04:31:25 64° ESE 04:36:40 10° S
Iridium 51 4.0 04:29:56 10° N 04:33:31 57° W 04:36:55 10° SSW
Cosmos 1602 Rocket 3.4 04:30:21 10° SSW 04:34:40 77° W 04:39:00 10° N
ASTEX 1 3.9 04:29:54 10° SSE 04:34:43 65° E 04:39:35 10° N
Cosmos 1674 3.4 04:31:31 10° SW 04:34:49 30° WNW 04:38:09 10° NNW
Cosmos 1943 Rocket 2.2 04:29:43 10° NNW 04:35:26 89° WSW 04:41:06 10° SSE
METEOR-M 4.3 04:30:11 10° NNE 04:35:33 79° ESE 04:40:53 10° S
Milstar 3 4.3 04:31:51 10° SW 04:37:30 27° S 04:43:25 10° ESE
PAYLOAD B 4.2 04:32:36 10° NNE 04:38:11 83° WNW 04:43:42 10° SSW
USA 234 3.6 04:32:42 10° SSE 04:38:59 50° SW 04:45:20 10° WNW
Meteor 1-31 Rocket 4.1 04:37:41 10° NNW 04:40:29 20° WNW 04:43:16 10° WSW
FENGYUN 3A 3.8 04:36:30 10° NNE 04:41:59 84° ESE 04:47:25 10° SSW
SL-8 R/B 3.8 04:38:25 10° WSW 04:43:12 65° NNW 04:47:58 10° ENE
Cosmos 1727 Rocket 4.1 04:37:39 10° N 04:43:57 86° E 04:50:14 10° S
Cosmos 44 Rocket 4.4 04:42:43 10° WNW 04:46:22 23° WSW 04:49:59 10° SSW
Cosmos 2058 Rocket 4.2 04:43:06 10° NW 04:46:30 22° W 04:49:54 10° SW
Cosmos 1626 2.0 04:45:09 10° S 04:48:50 82° W 04:52:34 10° N
Okean O Rocket 1.5 04:46:15 10° N 04:50:39 73° WNW 04:54:58 10° SSW
Centaur D AC-29 4.5 04:43:22 10° W 04:51:43 15° SW 04:55:49 10° SSW
Cosmos 1484 Rocket 3.6 04:52:24 10° N 04:55:44 29° WNW 04:59:07 10° SW
ATLAS 3B R/B 4.3 04:55:18 10° W 04:57:35 12° WSW 04:59:52 10° SW
SKYMED 2 4.2 04:54:15 10° SSW 04:58:11 34° W 05:02:10 10° NNW
Cosmos 1603 3.8 04:52:46 10° SW 04:58:16 56° WNW 05:03:51 10° NNE
SL-16 R/B 3.6 04:54:55 10° W 04:58:51 19° NW 05:02:48 10° N
DELTA 2 R/B (1) 4.5 04:57:13 10° SW 05:02:31 47° SSE 05:07:50 10° E
